SEJ253 VIDP-VISR

Flight info

Callsign SEJ253
Flight time 1h 7m
Altitude 34000
Route OROTI A589 ASARI W24 SGR
Aircraft B38M/M-SDE1FGHILORVWXY/HB1

Departure

Time 2026-04-11 11:07
Airport Indira Gandhi International Airport (VIDP)

Arrival

Time 2026-04-11 12:14
Airport Sheikh ul Alam International Airport (VISR)
Time Latitude Longitude Altitude Speed Heading
2026-04-11 10:49 28.56388 77.10985 770 ft 0 kts 105°
2026-04-11 10:59 28.56388 77.10984 770 ft 1 kts 105°
2026-04-11 10:59 28.56397 77.10960 770 ft 4 kts 128°
2026-04-11 10:59 28.56417 77.10943 770 ft 4 kts 166°
2026-04-11 10:59 28.56437 77.10943 770 ft 0 kts 194°
2026-04-11 11:00 28.56438 77.10943 770 ft 0 kts 194°
2026-04-11 11:02 28.56429 77.10940 770 ft 5 kts 195°
2026-04-11 11:03 28.56345 77.10922 769 ft 16 kts 169°
2026-04-11 11:03 28.56311 77.10977 770 ft 8 kts 105°
2026-04-11 11:03 28.56289 77.11073 771 ft 17 kts 103°
2026-04-11 11:03 28.56256 77.11227 773 ft 21 kts 104°
2026-04-11 11:04 28.56221 77.11373 776 ft 17 kts 105°
2026-04-11 11:04 28.56192 77.11494 777 ft 15 kts 105°
2026-04-11 11:04 28.56167 77.11598 779 ft 11 kts 105°
2026-04-11 11:04 28.56123 77.11649 779 ft 8 kts 185°
2026-04-11 11:05 28.56100 77.11642 780 ft 1 kts 197°
2026-04-11 11:05 28.56047 77.11623 779 ft 15 kts 197°
2026-04-11 11:05 28.56010 77.11579 778 ft 4 kts 283°
2026-04-11 11:05 28.56021 77.11532 777 ft 8 kts 284°
2026-04-11 11:06 28.56058 77.11375 774 ft 51 kts 285°
2026-04-11 11:06 28.56209 77.10718 766 ft 119 kts 285°
2026-04-11 11:06 28.56473 77.09600 792 ft 168 kts 287°
2026-04-11 11:06 28.56814 77.08269 1318 ft 188 kts 288°
2026-04-11 11:07 28.57182 77.06789 2027 ft 189 kts 284°
2026-04-11 11:07 28.57503 77.05323 2808 ft 202 kts 284°
2026-04-11 11:07 28.57870 77.03663 3305 ft 227 kts 284°
2026-04-11 11:07 28.58260 77.01921 4250 ft 232 kts 284°
2026-04-11 11:08 28.58672 77.00089 5000 ft 246 kts 285°
2026-04-11 11:08 28.59103 76.98176 5898 ft 252 kts 284°
2026-04-11 11:08 28.59541 76.96230 6853 ft 255 kts 284°
2026-04-11 11:08 28.59984 76.94271 7810 ft 256 kts 284°
2026-04-11 11:09 28.60429 76.92332 8794 ft 257 kts 286°
2026-04-11 11:09 28.61213 76.90485 9756 ft 262 kts 297°
2026-04-11 11:09 28.62119 76.88649 10426 ft 273 kts 296°
2026-04-11 11:09 28.63074 76.86684 10825 ft 293 kts 296°
2026-04-11 11:10 28.64085 76.84596 11334 ft 307 kts 295°
2026-04-11 11:10 28.65129 76.82444 12067 ft 311 kts 296°
2026-04-11 11:10 28.66181 76.80273 12876 ft 315 kts 296°
2026-04-11 11:10 28.67244 76.78077 13636 ft 319 kts 296°
2026-04-11 11:11 28.68318 76.75858 14323 ft 322 kts 296°
2026-04-11 11:11 28.69398 76.73620 15025 ft 324 kts 296°
2026-04-11 11:11 28.70121 76.72123 15486 ft 325 kts 296°
2026-04-11 11:11 28.71573 76.69113 16350 ft 329 kts 296°
2026-04-11 11:12 28.72683 76.66812 17012 ft 331 kts 296°
2026-04-11 11:12 28.73793 76.64508 17648 ft 333 kts 296°
2026-04-11 11:12 28.74533 76.62971 18055 ft 335 kts 296°
2026-04-11 11:12 28.75658 76.60637 18612 ft 337 kts 296°
2026-04-11 11:13 28.76785 76.58294 19200 ft 337 kts 296°
2026-04-11 11:13 28.77914 76.55946 19788 ft 338 kts 296°
2026-04-11 11:13 28.79047 76.53590 20351 ft 339 kts 296°
2026-04-11 11:13 28.80183 76.51224 20897 ft 341 kts 296°
2026-04-11 11:14 28.81323 76.48849 21436 ft 342 kts 296°
2026-04-11 11:14 28.82468 76.46464 21983 ft 342 kts 296°
2026-04-11 11:14 28.83614 76.44073 22495 ft 344 kts 296°
2026-04-11 11:14 28.84748 76.41707 23028 ft 345 kts 296°
2026-04-11 11:15 28.85902 76.39297 23454 ft 348 kts 296°
2026-04-11 11:15 28.87066 76.36863 23849 ft 350 kts 296°
2026-04-11 11:15 28.88234 76.34423 24270 ft 351 kts 296°
2026-04-11 11:15 28.89403 76.31977 24680 ft 351 kts 296°
2026-04-11 11:16 28.90574 76.29525 25109 ft 352 kts 296°
2026-04-11 11:16 28.91750 76.27062 25505 ft 354 kts 295°
2026-04-11 11:16 28.92929 76.24592 25890 ft 355 kts 295°
2026-04-11 11:16 28.94098 76.22140 26277 ft 356 kts 295°
2026-04-11 11:17 28.95283 76.19654 26652 ft 357 kts 295°
2026-04-11 11:17 28.96470 76.17162 27022 ft 358 kts 295°
2026-04-11 11:17 28.97661 76.14660 27385 ft 359 kts 295°
2026-04-11 11:17 28.98853 76.12156 27731 ft 359 kts 295°
2026-04-11 11:18 29.00048 76.09642 28096 ft 360 kts 295°
2026-04-11 11:18 29.01246 76.07121 28421 ft 362 kts 295°
2026-04-11 11:18 29.02448 76.04590 28749 ft 363 kts 295°
2026-04-11 11:18 29.03652 76.02052 29067 ft 364 kts 295°
2026-04-11 11:19 29.04862 75.99502 29379 ft 366 kts 294°
2026-04-11 11:19 29.06061 75.96971 29686 ft 367 kts 294°
2026-04-11 11:19 29.07274 75.94410 30061 ft 366 kts 294°
2026-04-11 11:19 29.08484 75.91854 30450 ft 365 kts 294°
2026-04-11 11:20 29.09694 75.89298 30721 ft 366 kts 294°
2026-04-11 11:20 29.10906 75.86732 31046 ft 366 kts 294°
2026-04-11 11:20 29.12113 75.84177 31379 ft 365 kts 294°
2026-04-11 11:20 29.13318 75.81626 31716 ft 364 kts 293°
2026-04-11 11:21 29.14520 75.79078 32053 ft 364 kts 293°
2026-04-11 11:21 29.15720 75.76535 32388 ft 363 kts 293°
2026-04-11 11:21 29.16917 75.73994 32752 ft 361 kts 293°
2026-04-11 11:21 29.18108 75.71465 33070 ft 361 kts 292°
2026-04-11 11:22 29.19285 75.68965 33385 ft 360 kts 292°
2026-04-11 11:22 29.20472 75.66440 33703 ft 360 kts 292°
2026-04-11 11:22 29.21660 75.63913 33847 ft 361 kts 292°
2026-04-11 11:23 29.24030 75.58869 33854 ft 358 kts 292°
2026-04-11 11:23 29.26386 75.53846 33851 ft 358 kts 292°
2026-04-11 11:24 29.28740 75.48820 33848 ft 358 kts 292°
2026-04-11 11:24 29.31106 75.43831 33881 ft 361 kts 297°
2026-04-11 11:24 29.32790 75.41624 33829 ft 377 kts 311°
2026-04-11 11:25 29.35075 75.40020 33841 ft 398 kts 325°
2026-04-11 11:25 29.37825 75.39146 33842 ft 423 kts 339°
2026-04-11 11:25 29.40752 75.38675 33841 ft 425 kts 338°
2026-04-11 11:26 29.46608 75.37694 33840 ft 426 kts 338°
2026-04-11 11:26 29.52489 75.36742 33840 ft 426 kts 338°
2026-04-11 11:27 29.58361 75.35795 33900 ft 426 kts 339°
2026-04-11 11:27 29.64232 75.34848 33839 ft 426 kts 339°
2026-04-11 11:28 29.70059 75.33906 33841 ft 426 kts 339°
2026-04-11 11:28 29.75936 75.32955 33840 ft 426 kts 339°
2026-04-11 11:29 29.84753 75.31527 33840 ft 426 kts 339°
2026-04-11 11:29 29.90627 75.30574 33843 ft 426 kts 339°
2026-04-11 11:30 29.96510 75.29618 33844 ft 426 kts 339°
2026-04-11 11:30 30.02348 75.28668 33845 ft 426 kts 339°
2026-04-11 11:31 30.08223 75.27712 33843 ft 426 kts 339°
2026-04-11 11:31 30.14103 75.26754 33889 ft 426 kts 340°
2026-04-11 11:32 30.19991 75.25792 33838 ft 426 kts 340°
2026-04-11 11:32 30.25872 75.24831 33846 ft 427 kts 340°
2026-04-11 11:33 30.31751 75.23869 33842 ft 427 kts 340°
2026-04-11 11:33 30.37602 75.22911 33845 ft 427 kts 340°
2026-04-11 11:34 30.43494 75.21944 33847 ft 427 kts 340°
2026-04-11 11:34 30.49373 75.20979 33855 ft 427 kts 340°
2026-04-11 11:35 30.55209 75.20019 33849 ft 427 kts 340°
2026-04-11 11:35 30.61095 75.19050 33857 ft 427 kts 340°
2026-04-11 11:36 30.66972 75.18081 33892 ft 427 kts 340°
2026-04-11 11:36 30.72852 75.17112 33864 ft 427 kts 340°
2026-04-11 11:37 30.78749 75.16187 33854 ft 434 kts 346°
2026-04-11 11:37 30.81837 75.16466 33845 ft 458 kts
2026-04-11 11:37 30.84956 75.17411 33863 ft 465 kts
2026-04-11 11:38 30.91215 75.19384 33864 ft 467 kts
2026-04-11 11:38 30.97474 75.21417 33877 ft 467 kts
2026-04-11 11:39 31.03727 75.23458 33862 ft 466 kts
2026-04-11 11:39 31.09974 75.25501 33862 ft 466 kts
2026-04-11 11:40 31.16211 75.27543 33868 ft 466 kts
2026-04-11 11:40 31.22464 75.29593 33914 ft 466 kts
2026-04-11 11:41 31.28719 75.31647 33867 ft 466 kts
2026-04-11 11:41 31.34930 75.33687 33873 ft 467 kts
2026-04-11 11:42 31.41186 75.35746 33869 ft 467 kts
2026-04-11 11:42 31.47430 75.37803 33870 ft 466 kts
2026-04-11 11:43 31.53692 75.39869 33885 ft 468 kts
2026-04-11 11:43 31.59956 75.41939 33881 ft 468 kts
2026-04-11 11:44 31.66228 75.44014 33874 ft 468 kts
2026-04-11 11:44 31.72506 75.46094 33877 ft 468 kts
2026-04-11 11:45 31.78743 75.48163 33916 ft 468 kts
2026-04-11 11:45 31.85016 75.50248 33886 ft 468 kts
2026-04-11 11:46 31.91271 75.52419 33885 ft 469 kts
2026-04-11 11:46 31.97539 75.54631 33882 ft 469 kts
2026-04-11 11:47 32.03797 75.56839 33889 ft 469 kts
2026-04-11 11:47 32.10017 75.59036 33905 ft 468 kts
2026-04-11 11:48 32.16253 75.61242 33901 ft 468 kts
2026-04-11 11:48 32.22492 75.62832 33892 ft 441 kts 348°
2026-04-11 11:49 32.25466 75.62365 33913 ft 425 kts 338°
2026-04-11 11:49 32.28361 75.61615 33887 ft 427 kts 337°
2026-04-11 11:49 32.34119 75.59942 33946 ft 425 kts 336°
2026-04-11 11:50 32.39831 75.58180 33911 ft 416 kts 335°
2026-04-11 11:50 32.42584 75.57321 33899 ft 400 kts 335°
2026-04-11 11:50 32.45238 75.56486 33625 ft 391 kts 335°
2026-04-11 11:51 32.47856 75.55661 33154 ft 387 kts 335°
2026-04-11 11:51 32.50419 75.54852 32675 ft 385 kts 335°
2026-04-11 11:51 32.53003 75.54038 32217 ft 383 kts 336°
2026-04-11 11:51 32.55568 75.53228 31760 ft 381 kts 336°
2026-04-11 11:52 32.58123 75.52423 31340 ft 379 kts 336°
2026-04-11 11:52 32.60668 75.51619 30886 ft 377 kts 338°
2026-04-11 11:52 32.63204 75.50818 30434 ft 376 kts 338°
2026-04-11 11:52 32.65732 75.50019 29971 ft 376 kts 338°
2026-04-11 11:53 32.68259 75.49220 29375 ft 376 kts 339°
2026-04-11 11:53 32.70786 75.48420 28795 ft 377 kts 339°
2026-04-11 11:53 32.73320 75.47619 28353 ft 376 kts 339°
2026-04-11 11:53 32.75666 75.46878 27848 ft 376 kts 339°
2026-04-11 11:54 32.78193 75.46081 27474 ft 373 kts 340°
2026-04-11 11:54 32.80692 75.45291 27091 ft 369 kts 340°
2026-04-11 11:54 32.83168 75.44509 26684 ft 367 kts 340°
2026-04-11 11:54 32.85628 75.43729 26289 ft 366 kts 341°
2026-04-11 11:55 32.88091 75.42950 25887 ft 365 kts 341°
2026-04-11 11:55 32.90545 75.42174 25500 ft 365 kts 341°
2026-04-11 11:55 32.92964 75.41407 25110 ft 363 kts 341°
2026-04-11 11:55 32.95401 75.40634 24732 ft 362 kts 341°
2026-04-11 11:56 32.97831 75.39862 24345 ft 361 kts 342°
2026-04-11 11:56 33.00258 75.39093 23963 ft 361 kts 342°
2026-04-11 11:56 33.02680 75.38324 23570 ft 360 kts 342°
2026-04-11 11:56 33.05101 75.37554 23143 ft 360 kts 342°
2026-04-11 11:57 33.07503 75.36790 22744 ft 353 kts 342°
2026-04-11 11:57 33.09850 75.36043 22402 ft 345 kts 342°
2026-04-11 11:57 33.12124 75.35320 22077 ft 331 kts 342°
2026-04-11 11:57 33.14309 75.34624 21730 ft 320 kts 342°
2026-04-11 11:58 33.16421 75.33950 21392 ft 308 kts 342°
2026-04-11 11:58 33.18455 75.33302 21087 ft 297 kts 342°
2026-04-11 11:58 33.20419 75.32676 20780 ft 288 kts 342°
2026-04-11 11:58 33.22309 75.32073 20507 ft 273 kts 342°
2026-04-11 11:59 33.24098 75.31502 20236 ft 261 kts 342°
2026-04-11 11:59 33.25826 75.30949 19976 ft 254 kts 342°
2026-04-11 11:59 33.26957 75.30588 19807 ft 253 kts 342°
2026-04-11 11:59 33.28659 75.30043 19564 ft 253 kts 343°
2026-04-11 12:00 33.30355 75.29501 19324 ft 251 kts 343°
2026-04-11 12:00 33.32045 75.28960 19235 ft 252 kts 343°
2026-04-11 12:00 33.34286 75.28243 19068 ft 252 kts 342°
2026-04-11 12:00 33.35980 75.27702 18939 ft 252 kts 343°
2026-04-11 12:01 33.37125 75.27335 18861 ft 252 kts 343°
2026-04-11 12:01 33.38814 75.26794 18732 ft 251 kts 343°
2026-04-11 12:01 33.40486 75.26257 18613 ft 251 kts 342°
2026-04-11 12:01 33.42177 75.25715 18489 ft 251 kts 343°
2026-04-11 12:02 33.43859 75.25177 18367 ft 250 kts 343°
2026-04-11 12:02 33.45517 75.24644 18218 ft 250 kts 344°
2026-04-11 12:02 33.47192 75.24107 18067 ft 249 kts 343°
2026-04-11 12:02 33.48860 75.23571 17920 ft 248 kts 344°
2026-04-11 12:03 33.50455 75.22846 17552 ft 244 kts 328°
2026-04-11 12:03 33.51892 75.21794 17280 ft 242 kts 327°
2026-04-11 12:03 33.53328 75.20735 16971 ft 242 kts 327°
2026-04-11 12:03 33.54757 75.19681 16643 ft 240 kts 327°
2026-04-11 12:04 33.56173 75.18637 16313 ft 238 kts 327°
2026-04-11 12:04 33.57579 75.17601 15987 ft 237 kts 327°
2026-04-11 12:04 33.58979 75.16570 15660 ft 235 kts 327°
2026-04-11 12:04 33.60368 75.15545 15325 ft 234 kts 327°
2026-04-11 12:05 33.61748 75.14526 14953 ft 232 kts 327°
2026-04-11 12:05 33.63120 75.13514 14649 ft 231 kts 327°
2026-04-11 12:05 33.64487 75.12505 14332 ft 230 kts 327°
2026-04-11 12:05 33.65834 75.11510 14013 ft 230 kts 327°
2026-04-11 12:06 33.67191 75.10506 13659 ft 228 kts 327°
2026-04-11 12:06 33.68538 75.09511 13301 ft 227 kts 327°
2026-04-11 12:06 33.69882 75.08518 12962 ft 226 kts 327°
2026-04-11 12:06 33.71219 75.07529 12606 ft 225 kts 327°
2026-04-11 12:07 33.72557 75.06579 12257 ft 222 kts 329°
2026-04-11 12:07 33.73852 75.05579 11909 ft 219 kts 323°
2026-04-11 12:07 33.75032 75.04461 11628 ft 213 kts 319°
2026-04-11 12:07 33.76146 75.03283 11342 ft 212 kts 316°
2026-04-11 12:08 33.77230 75.02076 11028 ft 212 kts 316°
2026-04-11 12:08 33.78299 75.00857 10708 ft 211 kts 316°
2026-04-11 12:08 33.79363 74.99640 10400 ft 211 kts 316°
2026-04-11 12:08 33.80421 74.98427 10116 ft 210 kts 316°
2026-04-11 12:09 33.81478 74.97214 9822 ft 209 kts 317°
2026-04-11 12:09 33.82527 74.96009 9524 ft 208 kts 316°
2026-04-11 12:09 33.83555 74.94829 9230 ft 207 kts 316°
2026-04-11 12:09 33.84595 74.93634 8947 ft 206 kts 317°
2026-04-11 12:10 33.85626 74.92448 8667 ft 205 kts 316°
2026-04-11 12:10 33.86655 74.91265 8400 ft 204 kts 316°
2026-04-11 12:10 33.87683 74.90081 8140 ft 204 kts 316°
2026-04-11 12:10 33.88710 74.88900 7879 ft 204 kts 315°
2026-04-11 12:11 33.89735 74.87722 7613 ft 203 kts 315°
2026-04-11 12:11 33.90756 74.86546 7327 ft 203 kts 315°
2026-04-11 12:11 33.91771 74.85378 7064 ft 198 kts 315°
2026-04-11 12:11 33.92708 74.84299 6824 ft 176 kts 316°
2026-04-11 12:12 33.93559 74.83318 6615 ft 166 kts 316°
2026-04-11 12:12 33.94383 74.82368 6404 ft 163 kts 316°
2026-04-11 12:12 33.95205 74.81421 6179 ft 163 kts 316°
2026-04-11 12:12 33.96021 74.80480 5955 ft 162 kts 316°
2026-04-11 12:13 33.96835 74.79540 5743 ft 162 kts 316°
2026-04-11 12:13 33.97655 74.78615 5520 ft 161 kts 316°
2026-04-11 12:13 33.98384 74.77762 5470 ft 119 kts 316°
2026-04-11 12:13 33.98831 74.77242 5456 ft 67 kts 316°
2026-04-11 12:14 33.99165 74.76853 5438 ft 64 kts 316°
2026-04-11 12:14 33.99439 74.76536 5427 ft 45 kts 316°
2026-04-11 12:14 33.99642 74.76299 5425 ft 37 kts 316°
2026-04-11 12:14 33.99787 74.76136 5421 ft 15 kts 332°
2026-04-11 12:15 33.99879 74.76147 5417 ft 13 kts 13°
2026-04-11 12:15 33.99970 74.76172 5422 ft 14 kts 13°
2026-04-11 12:15 34.00056 74.76194 5421 ft 11 kts 14°
2026-04-11 12:15 34.00085 74.76204 5413 ft 0 kts 17°